Weather History for Inverness, FL

Change the Weather History Date:

Friday, October 26, 2012

  Actual Average (KOCF) Record (KOCF)
Temperature  
Mean Temperature 78 °F -  
Max Temperature 86 °F 78 °F 89 °F (2010)
Min Temperature 69 °F 57 °F 37 °F (2005)
Cooling Degree Days 12    
Growing Degree Days 28 (Base 50)    
Moisture  
Dew Point 66 °F    
Average Humidity 73    
Maximum Humidity 94    
Minimum Humidity 43    
Precipitation  
Precipitation 0.00 in - - ()
Sea Level Pressure  
Sea Level Pressure 29.76 in    
Wind  
Wind Speed 9 mph ()    
Max Wind Speed 24 mph    
Max Gust Speed 31 mph    
Averages and records for this station are not official NWS values.
T = Trace of Precipitation, MM = Missing Value Source: Averaged Metar Reports

Daily Weather History Graph

Daily Weather History Graph

Search for Another Location

Airport:

Trip Planner

Search our weather history database for the weather conditions in past years. The results will help you decide how hot, cold, wet, or windy it might be!

Date:

Astronomy

Oct. 26, 2012 Rise Set
Actual Time 7:37 AM EDT 6:48 PM EDT
Civil Twilight 7:13 AM EDT 7:12 PM EDT
Nautical Twilight 6:45 AM EDT 7:40 PM EDT
Astronomical Twilight 6:18 AM EDT 8:07 PM EDT
Moon 4:53 PM EDT (10/26) 4:44 AM EDT (10/26)
Length of Visible Light 11h 59m
Length of Day
11h 10m
Waxing Gibbous, 91% of the Moon is Illuminated
Oct 26
Waxing Gibbous
Oct 29
Full
Nov 6
Last Quarter
Nov 13
New
Nov 20
First Quarter

Hourly Weather History & Observations

Time (EDT) Temp. Heat Index Dew Point Humidity Pressure Visibility Wind Dir Wind Speed Gust Speed Precip Events Conditions
12:15 AM 71.6 °F - 69.8 °F 94% 29.86 in - North 5.8 mph - N/A   Unknown
12:35 AM 71.6 °F - 69.8 °F 94% 29.85 in - North 5.8 mph - N/A   Unknown
12:55 AM 71.6 °F - 69.8 °F 94% 29.85 in - North 3.5 mph - N/A   Unknown
1:15 AM 71.6 °F - 69.8 °F 94% 29.84 in - NE 3.5 mph - N/A   Unknown
1:35 AM 71.6 °F - 69.8 °F 94% 29.84 in - North 3.5 mph - N/A   Unknown
1:55 AM 71.6 °F - 69.8 °F 94% 29.83 in - North 4.6 mph - N/A   Unknown
2:15 AM 71.6 °F - 69.8 °F 94% 29.82 in - North 4.6 mph - N/A   Unknown
2:35 AM 71.6 °F - 69.8 °F 94% 29.81 in - North 4.6 mph - N/A   Unknown
2:55 AM 71.6 °F - 69.8 °F 94% 29.81 in - NNE 5.8 mph - N/A   Unknown
3:15 AM 71.6 °F - 69.8 °F 94% 29.80 in - NNE 6.9 mph - N/A   Unknown
3:35 AM 71.6 °F - 69.8 °F 94% 29.79 in - North 6.9 mph - N/A   Unknown
3:55 AM 71.6 °F - 69.8 °F 94% 29.79 in - North 5.8 mph - N/A   Unknown
4:15 AM 71.6 °F - 69.8 °F 94% 29.78 in - North 4.6 mph - N/A   Unknown
4:35 AM 71.6 °F - 69.8 °F 94% 29.78 in - North 8.1 mph - N/A   Unknown
4:55 AM 71.6 °F - 68.0 °F 88% 29.77 in - North 6.9 mph - N/A   Unknown
5:15 AM 71.6 °F - 68.0 °F 88% 29.78 in - North 6.9 mph - N/A   Unknown
5:35 AM 71.6 °F - 68.0 °F 88% 29.78 in - North 5.8 mph - N/A   Unknown
5:55 AM 69.8 °F - 68.0 °F 94% 29.78 in - North 9.2 mph - N/A   Unknown
6:15 AM 71.6 °F - 68.0 °F 88% 29.79 in - North 6.9 mph - N/A   Unknown
6:35 AM 71.6 °F - 68.0 °F 88% 29.79 in - North 9.2 mph - N/A   Unknown
6:55 AM 71.6 °F - 68.0 °F 88% 29.79 in - North 6.9 mph - N/A   Unknown
7:15 AM 71.6 °F - 68.0 °F 88% 29.79 in - North 9.2 mph - N/A   Unknown
7:35 AM 71.6 °F - 68.0 °F 88% 29.79 in - North 11.5 mph - N/A   Unknown
7:55 AM 71.6 °F - 68.0 °F 88% 29.80 in - North 9.2 mph - N/A   Unknown
8:15 AM 71.6 °F - 68.0 °F 88% 29.80 in - North 10.4 mph - N/A   Clear
8:35 AM 71.6 °F - 68.0 °F 88% 29.80 in - North 6.9 mph - N/A   Clear
8:55 AM 71.6 °F - 68.0 °F 88% 29.80 in - North 11.5 mph 17.3 mph N/A   Clear
9:55 AM 77.0 °F - 68.0 °F 74% 29.80 in - NNE 11.5 mph 19.6 mph N/A   Clear
10:35 AM 77.0 °F - 68.0 °F 74% 29.80 in - NNE 15.0 mph 28.8 mph N/A   Scattered Clouds
10:55 AM 78.8 °F - 68.0 °F 69% 29.80 in - NNE 17.3 mph 20.7 mph N/A   Mostly Cloudy
11:15 AM 78.8 °F - 68.0 °F 69% 29.80 in - NNE 15.0 mph 24.2 mph N/A   Scattered Clouds
11:35 AM 80.6 °F 83.2 °F 68.0 °F 65% 29.79 in - NNE 15.0 mph 23.0 mph N/A   Scattered Clouds
11:55 AM 80.6 °F 82.7 °F 66.2 °F 61% 29.79 in - NNE 19.6 mph 29.9 mph N/A   Mostly Cloudy
12:15 PM 82.4 °F 83.9 °F 64.4 °F 54% 29.78 in - NNE 17.3 mph 28.8 mph N/A   Scattered Clouds
12:35 PM 82.4 °F 83.9 °F 64.4 °F 54% 29.77 in - NNE 19.6 mph 27.6 mph N/A   Mostly Cloudy
12:55 PM 82.4 °F 83.9 °F 64.4 °F 54% 29.76 in - NNE 16.1 mph 27.6 mph N/A   Scattered Clouds
1:15 PM 82.4 °F 83.9 °F 64.4 °F 54% 29.75 in - North 15.0 mph 21.9 mph N/A   Scattered Clouds
1:35 PM 86.0 °F 86.1 °F 60.8 °F 43% 29.74 in - NE 17.3 mph 29.9 mph N/A   Scattered Clouds
1:55 PM 86.0 °F 86.1 °F 60.8 °F 43% 29.74 in - NE 15.0 mph 26.5 mph N/A   Scattered Clouds
2:15 PM 86.0 °F 86.1 °F 60.8 °F 43% 29.73 in - NE 20.7 mph 29.9 mph N/A   Scattered Clouds
2:35 PM 84.2 °F 84.4 °F 60.8 °F 45% 29.72 in - NNE 13.8 mph 26.5 mph N/A   Scattered Clouds
2:55 PM 86.0 °F 86.1 °F 60.8 °F 43% 29.72 in - NNE 16.1 mph 27.6 mph N/A   Scattered Clouds
3:15 PM 82.4 °F 83.4 °F 62.6 °F 51% 29.71 in - NNE 18.4 mph 24.2 mph N/A   Scattered Clouds
3:35 PM 84.2 °F 85.6 °F 64.4 °F 51% 29.70 in - NNE 21.9 mph 28.8 mph N/A   Scattered Clouds
3:55 PM 82.4 °F 83.4 °F 62.6 °F 51% 29.70 in - North 17.3 mph 31.1 mph N/A   Scattered Clouds
4:15 PM 82.4 °F 83.9 °F 64.4 °F 54% 29.70 in - North 18.4 mph 25.3 mph N/A   Mostly Cloudy
4:35 PM 82.4 °F 83.9 °F 64.4 °F 54% 29.69 in - North 18.4 mph 27.6 mph N/A   Scattered Clouds
4:55 PM 80.6 °F 82.3 °F 64.4 °F 58% 29.70 in - NNE 11.5 mph 25.3 mph N/A   Scattered Clouds
5:15 PM 80.6 °F 82.3 °F 64.4 °F 58% 29.70 in - North 19.6 mph 24.2 mph N/A   Mostly Cloudy
5:35 PM 78.8 °F - 64.4 °F 61% 29.70 in - North 19.6 mph 24.2 mph N/A   Overcast
5:55 PM 78.8 °F - 62.6 °F 57% 29.70 in - North 24.2 mph 27.6 mph N/A   Mostly Cloudy
6:15 PM 77.0 °F - 62.6 °F 61% 29.70 in - North 13.8 mph 25.3 mph N/A   Scattered Clouds
6:35 PM 77.0 °F - 62.6 °F 61% 29.70 in - North 10.4 mph 18.4 mph N/A   Clear
6:55 PM 77.0 °F - 62.6 °F 61% 29.71 in - North 15.0 mph 21.9 mph N/A   Scattered Clouds
7:15 PM 77.0 °F - 62.6 °F 61% 29.71 in - North 15.0 mph 29.9 mph N/A   Scattered Clouds
7:35 PM 75.2 °F - 62.6 °F 65% 29.71 in - North 13.8 mph 20.7 mph N/A   Scattered Clouds
7:55 PM 75.2 °F - 62.6 °F 65% 29.71 in - North 15.0 mph 23.0 mph N/A   Scattered Clouds
8:15 PM 73.4 °F - 62.6 °F 69% 29.71 in - North 11.5 mph 21.9 mph N/A   Clear
8:35 PM 73.4 °F - 62.6 °F 69% 29.71 in - North 15.0 mph 25.3 mph N/A   Clear
8:55 PM 73.4 °F - 62.6 °F 69% 29.71 in - North 15.0 mph 20.7 mph N/A   Clear
9:15 PM 73.4 °F - 62.6 °F 69% 29.72 in - North 13.8 mph 21.9 mph N/A   Clear
9:35 PM 73.4 °F - 62.6 °F 69% 29.72 in - North 10.4 mph 19.6 mph N/A   Clear
10:15 PM 73.4 °F - 62.6 °F 69% 29.73 in - North 15.0 mph 24.2 mph N/A   Clear
10:35 PM 71.6 °F - 60.8 °F 69% 29.72 in - North 12.7 mph 21.9 mph N/A   Clear
10:55 PM 71.6 °F - 60.8 °F 69% 29.72 in - North 12.7 mph 20.7 mph N/A   Clear
11:15 PM 71.6 °F - 60.8 °F 69% 29.71 in - North 9.2 mph 21.9 mph N/A   Clear
11:35 PM 71.6 °F - 60.8 °F 69% 29.71 in - North 11.5 mph 18.4 mph N/A   Clear